Location: Wien
(48.2082°N, 16.3738°E)
Time: 20:01:06
(UTC+02:00)

MOZHAYETS 4 - Pass Details

Date: 30 April 2024
Orbit: 652 x 670 km, 98.3° (Epoch: 20 May)

Event Time Altitude Azimuth Distance (km) Brightness Sun altitude
Rises 03:51:13 0° 158° (SSE) 3,007 10.9 -15.4°
Reaches altitude 10° 03:53:26 10° 156° (SSE) 2,097 10.1 -15.1°
Maximum altitude 03:58:00 71° 73° (ENE) 712 8.0 -14.6°
Drops below altitude 10° 04:02:36 10° 350° (N) 2,109 10.7 -14.0°
Sets 04:04:50 0° 348° (NNW) 3,025 11.5 -13.7°
